Location: Apalco
(33.3585°N, 93.4602°W)
Time: 10:57:52
(UTC+00:00)

Tiangong - Pass Details

Date: 26 September 2021
Orbit: 382 x 385 km, 41.5° (Epoch: 18 October)

Event Time Altitude Azimuth Distance (km) Brightness Sun altitude
Exits shadow 10:10:52 28° 97° (E) 753 3.1 -24.4°
Drops below altitude 10° 10:12:41 10° 75° (ENE) 1,392 5.0 -24.0°
Enters shadow 11:07:15 -72° 244° (WSW) 12,555 8.6 -12.8°
